Back to catalog

THORAD AGENA D DEB

AliveSSO
NORAD 4992·DEBRIS·🇺🇸 United States

Launched Apr 8, 1970 from Vandenberg Space Force Base

Loading…

Next Passes (next 24 hours)

TLE

FreshSource: Space-Track

Epoch: Sep 14, 2026, 13:22 UTC

1 04992U 70025HN  26257.55721117  .00000078  00000-0  16467-3 0  9991
2 04992 100.0982 111.9970 0015698 129.0784 259.6708 13.61171219795352

Track THORAD AGENA D DEB in real time with AllMySat

Download on the App Store